Home   Weather   Charleroi   Past weeks

Flag for Belgium Past Weather in Charleroi, Belgium — Yesterday and Last 2 Weeks

Now
64 °F

Sunny.


Feels Like: 64 °F
Forecast: 54 / 75 °F
Wind: 6 mph from Southwest

Location: Charleroi / Gosselies

Current Time: Aug 31, 2016 at 10:08:38 AM

Latest Report: Aug 31, 2016 at 9:20 AM


Visibility: 10 mi

Pressure: 30.15 "Hg

Humidity: 64%

Dew Point: 52 °F

Location of CharleroiLocation

Past Weather in Charleroi — Graph

°F

Charleroi Temperature Yesterday

Maximum temperature yesterday: 73 °F (at 3:20 PM)
Minimum temperature yesterday: 54 °F (at 4:50 AM)
Average temperature yesterday: 63 °F

High & Low Weather Summary for the Past Weeks

 TemperatureHumidityPressure
High95 °F (Aug 27, 3:20 PM)100% (Aug 22, 4:50 AM)30.33 "Hg (Aug 22, 4:50 AM)
Low54 °F (Aug 17, 6:20 AM)27% (Aug 24, 5:50 PM)29.80 "Hg (Aug 18, 4:20 AM)
Average69 °F68%30.05 "Hg
* Reported Aug 16 8:20 AM — Aug 31 8:50 AM, Charleroi, Weather by CustomWeather, © 2016

Note: Actual official high and low records may vary slightly from our data, if they occured in-between our weather recording intervals... More about our weather records

Advertising

Charleroi Weather History for the Previous 24 Hours

Scroll right to see more
 ConditionsComfort  
Time TempWeatherWind HumidityBarometerVisibility
8:50 AM
Wed, Aug 31
63 °FSunny.6 mph68%30.15 "Hg10 mi
8:20 AM61 °FSunny.5 mph72%30.15 "Hg10 mi
7:50 AM57 °FClear.3 mph82%30.15 "Hg10 mi
7:20 AM55 °FPassing clouds.3 mph88%30.15 "HgN/A
6:50 AM55 °FClear.5 mph82%30.15 "Hg10 mi
6:20 AM55 °FClear.5 mph82%30.15 "Hg10 mi
5:50 AM55 °FClear.5 mph82%30.15 "Hg10 mi
5:20 AM55 °FClear.5 mph82%30.15 "Hg10 mi
4:50 AM55 °FClear.5 mph82%30.15 "Hg10 mi
4:20 AM57 °FClear.6 mph82%30.15 "Hg10 mi
3:50 AM57 °FClear.3 mph77%30.18 "Hg10 mi
3:20 AM57 °FClear.5 mph77%30.18 "Hg10 mi
2:50 AM57 °FClear.3 mph77%30.18 "Hg10 mi
2:20 AM59 °FClear.3 mph72%30.18 "Hg10 mi
1:50 AM59 °FClear.5 mph72%30.18 "Hg10 mi
1:20 AM59 °FClear.5 mph72%30.21 "Hg10 mi
12:50 AM57 °FClear.5 mph77%30.21 "Hg10 mi
12:20 AM59 °FClear.3 mph72%30.21 "Hg10 mi
11:50 PM
Tue, Aug 30
59 °FClear.3 mph72%30.21 "Hg10 mi
11:20 PM61 °FClear.5 mph68%30.21 "Hg10 mi
10:50 PM63 °FClear.7 mph64%30.21 "Hg10 mi
10:20 PM63 °FClear.5 mph64%30.21 "Hg10 mi
9:50 PM63 °FClear.5 mph64%30.24 "Hg10 mi
9:20 PM64 °FSunny.5 mph60%30.24 "Hg10 mi
8:50 PM66 °FSunny.6 mph56%30.21 "Hg10 mi
8:20 PM68 °FSunny.7 mph49%30.21 "Hg10 mi
7:50 PM70 °FSunny.8 mph46%30.21 "Hg10 mi
7:20 PM72 °FSunny.9 mph41%30.24 "Hg10 mi
6:50 PM72 °FSunny.9 mph38%30.24 "Hg10 mi
6:20 PM73 °FPassing clouds.12 mph38%30.24 "HgN/A
5:50 PM73 °FPassing clouds.10 mph44%30.24 "HgN/A
5:20 PM73 °FPassing clouds.8 mph44%30.24 "HgN/A
4:50 PM73 °FPassing clouds.8 mph41%30.24 "HgN/A
4:20 PM73 °FPassing clouds.8 mph38%30.27 "HgN/A
3:50 PM73 °FPassing clouds.7 mph44%30.27 "HgN/A
3:20 PM73 °FPassing clouds.9 mph47%30.27 "HgN/A
2:50 PM72 °FPassing clouds.7 mph50%30.27 "HgN/A
2:20 PM72 °FPassing clouds.6 mph50%30.30 "HgN/A
1:50 PM72 °FScattered clouds.5 mph50%30.30 "HgN/A
1:20 PM70 °FScattered clouds.6 mph57%30.30 "HgN/A
12:50 PM70 °FScattered clouds.7 mph57%30.30 "HgN/A
12:20 PM68 °FScattered clouds.7 mph60%30.33 "HgN/A
11:50 AM66 °FPassing clouds.8 mph64%30.33 "HgN/A
11:20 AM66 °FPassing clouds.6 mph68%30.33 "HgN/A
10:50 AM64 °FPassing clouds.5 mph68%30.33 "HgN/A
10:20 AM63 °FPassing clouds.3 mph83%30.33 "HgN/A
Weather by CustomWeather, © 2016

See weather overviewHow to use our weather pages